Location: Long Geng
(2.6167°N, 114.1333°E)
Time: 05:07:10
(UTC+00:00)

Cosmos 2322 - Pass Details

Date: 14 May 2021
Orbit: 842 x 853 km, 71.0° (Epoch: 13 June)

Event Time Altitude Azimuth Distance (km) Brightness Sun altitude
Exits shadow 20:41:37 48° 256° (WSW) 1,098 3.8 -22.2°
Maximum altitude 20:42:28 52° 285° (WNW) 1,042 3.8 -22.0°
Drops below altitude 10° 20:47:56 10° 1° (N) 2,455 6.4 -20.8°
Sets 20:50:26 0° 6° (N) 3,386 7.2 -20.2°
